{"data":{"norad_id":42964,"epoch":"2026-05-25T03:41:30.792768Z","epoch_age_seconds":57645,"freshness":"FRESH","line1":"1 42964U 17061K   26145.15382862  .00000054  00000+0  12157-4 0  9991","line2":"2 42964  86.3992  35.0069 0002722  82.2422 277.9083 14.34217553451551","mean_motion":14.34217553,"eccentricity":0.0002722,"inclination_deg":86.3992,"raan_deg":35.0069,"arg_perigee_deg":82.2422,"mean_anomaly_deg":277.9083,"bstar":1.2157e-5,"rev_number":45155,"period_min":100.40317781552,"perigee_km":775.71999955142,"apogee_km":779.61561968977,"semimajor_km":7155.8048096206,"source":"CELESTRAK","updated_at":"2026-05-25T13:38:14.804377Z"}}